sat.trackr.live / text

‹ back to catalog

TIANPING 3B-01

NORAD 61615 · 2024-189B

PAYLOAD ACTIVE UNKNOWN

§ Identity

Operator
Country
PRC
Launch date
2024-10-22
Launch site
TAISC
Launch vehicle
Mass (kg)
RCS (m²)

External: N2YO · Heavens-Above · Gunter

§ Orbital elements

Epoch: 2026-05-25T04:20:07.429056Z

Period
95.94 min
Inclination
97.5204°
Eccentricity
0.0004090
Mean motion
15.01014946 rev/d
Perigee alt
560.9 km
Apogee alt
566.6 km
Semi-major
6,941.9 km
B*
1.8387e-4
RAAN
166.0484°
Arg perigee
72.5776°
Mean anomaly
287.5896°
Rev number
8,699

§ Raw data

TIANPING 3B-011 61615U 24189B   26145.18064154  .00002290  00000+0  18387-3 0  99922 61615  97.5204 166.0484 0004090  72.5776 287.5896 15.01014946 86992

JSON: /api/v1/satellites/61615 · /tle

For live sub-satellite position, see the globe view (requires WebGL).

§ Visibility from observer

Set your observer location to see the next 7 days of passes ≥ 10°. The values pass through the URL so the page stays shareable.

No JS? Fill the form by hand. The geolocation button needs JavaScript.